Regional Weather Roundup
Issued by NWS

Home | Current Version | Previous Version | Graphics & Text | Print | Product List | Glossary On
Versions: 1 2 3 4 5 6 7 8 9 10 11 12 13 14 15 16 17 18 19 20 21 22 23 24 25 26 27 28 29 30 31 32 33 34 35 36 37 38 39 40 41 42 43 44 45 46 47 48 49 50
000
ASUS45 KCYS 180210
RWRWY

WYOMING REGIONAL WEATHER ROUNDUP
NATIONAL WEATHER SERVICE CHEYENNE WY
700 PM MST FRI NOV 17 2017

NOTE:  "FAIR" INDICATES FEW OR NO CLOUDS BELOW 12,000 FEET
WITH NO SIGNIFICANT WEATHER AND/OR OBSTRUCTIONS TO VISIBILITY.

WYZ001-180300-
YELLOWSTONE NATIONAL PARK

CITY           SKY/WX    TMP DP  RH WIND       PRES   REMARKS
LK YELLOWSTONE   N/A     15  10  80 VRB3      29.95R
W YELLOWSTONE  NOT AVBL

$$
WYZ002>013-054>058-071-098>099-180300-
NORTHERN WYOMING

CITY           SKY/WX    TMP DP  RH WIND       PRES   REMARKS
JACKSON        FLURRIES  26  14  60 W14       30.00  WCI  14
CODY           FAIR      30  18  60 W7        29.90R WCI  23
GREYBULL       FAIR      39  14  36 N18G26    29.87R WCI  30
WORLAND        CLOUDY    35  25  66 W6        29.89R WCI  30
SHERIDAN       FAIR      34  26  72 W8        29.85R WCI  27
BUFFALO        FAIR      33  22  63 NW18      29.82R WCI  22
GILLETTE       CLOUDY    34  28  79 NW15      29.80R WCI  24
HULETT         FAIR      36  32  87 W6        29.80R WCI  31
NEWCASTLE      FAIR      34  30  86 NW8       29.77R WCI  27

$$
WYZ014>020-022>026-101>103-180300-
CENTRAL WYOMING

CITY           SKY/WX    TMP DP  RH WIND       PRES   REMARKS
BIG PINEY      FAIR      19  15  84 N7        29.97R WCI  10
PINEDALE       FAIR      21  19  93 NW13      29.95R WCI   9
DUBOIS         LGT SNOW  21  18  86 NW18      29.91R WCI   6
LANDER         CLOUDY    31  19  61 W21G35    29.87  WCI  18
RIVERTON       LGT SNOW  29  27  92 N6        29.90R VSB 3/4 WCI  23
CASPER         LGT SNOW  31  29  92 N9        29.82R FOG     WCI  23
DOUGLAS        CLOUDY    31  31 100 W7        29.80R WCI  24

$$
WYZ021-027>030-104>119-180300-
SOUTHERN WYOMING

CITY           SKY/WX    TMP DP  RH WIND       PRES   REMARKS
EVANSTON       FAIR      22  15  75 W22       30.05R WCI   6
FORT BRIDGER   FAIR      22  19  88 W17       30.06R WCI   8
ROCK SPRINGS   FAIR      24  20  84 W25G35    29.96R WCI   8
DIXON          CLOUDY    30  25  83 W7        29.97R WCI  23
RAWLINS        LGT SNOW  30  25  81 W23G35    29.82R WCI  17
SARATOGA       CLOUDY    30  30 100 SW15      29.83F WCI  19
LARAMIE        CLOUDY    29  25  85 W26G36    29.81R WCI  14
CHEYENNE       FAIR      36  26  67 NW18G28   29.73R WCI  26
TORRINGTON     MOCLDY    39  36  89 N22       29.70R WCI  29
PINE BLUFFS    CLOUDY    37  32  81 MISG      29.71F

$$



USA.gov is the U.S. government's official web portal to all federal, state and local government web resources and services.